Location: S�tio Afonso Gruber
(26.1760°S, 49.5250°W)
Time: 23:28:47
(UTC+00:00)

Intelsat 5-3 Rocket - Pass Details

Date: 02 October 2020
Orbit: 281 x 6111 km, 23.6° (Epoch: 22 October)

Event Time Altitude Azimuth Distance (km) Brightness Sun altitude
Exits shadow 06:11:38 45° 274° (W) 5,617 6.8 -36.3°
Maximum altitude 06:27:05 74° 343° (NNW) 5,862 7.1 -33.2°
Drops below altitude 10° 07:08:25 10° 62° (ENE) 8,669 8.9 -24.5°
Sets 07:14:26 0° 64° (ENE) 9,158 9.2 -23.2°
